Location: Newark
(48.3453°N, 0.5589°E)
Time: 08:43:40
(UTC+00:00)

A-11 Canister half - Pass Details

Date: 12 December 2019
Orbit: 1517 x 1683 km, 47.2° (Epoch: 26 January)

Event Time Altitude Azimuth Distance (km) Brightness Sun altitude
Rises 17:31:46 0° 290° (WNW) 4,866 12.5 -13.9°
Reaches altitude 10° 17:35:02 10° 284° (WNW) 3,897 12.0 -14.4°
Maximum altitude 17:44:19 45° 217° (SW) 2,162 10.2 -15.9°
Drops below altitude 10° 17:53:43 10° 149° (SSE) 3,939 11.0 -17.4°
Sets 17:57:03 0° 143° (SE) 4,922 11.4 -17.9°
